Back to catalog

STARLINK-37382

AliveCommunicationsSSO
NORAD 68851·PAYLOAD·🇺🇸 United States

Launched Apr 26, 2026 from Vandenberg Space Force Base

Loading…

Next Passes (next 24 hours)

TLE

FreshSource: CelesTrak SupGP

Epoch: Sep 15, 2026, 03:50 UTC

1 68851C 26094N   26258.16020833 -.00058806  00000+0 -18255-2 0  2584
2 68851  97.2837 271.3547 0001326  86.4521 109.0149 15.33469589    11

Track STARLINK-37382 in real time with AllMySat

Download on the App Store